TimeCDT,TemperatureF,Dew PointF,Humidity,Sea Level PressureIn,VisibilityMPH,Wind Direction,Wind SpeedMPH,Gust SpeedMPH,PrecipitationIn,Events,Conditions,WindDirDegrees,DateUTC
12:12 AM,51.8,39.2,62,29.98,10.0,East,3.5,-,N/A,Rain,Light Rain,80,2013-05-18 05:12:00
12:32 AM,51.8,41.0,67,29.98,10.0,East,3.5,-,N/A,,Overcast,80,2013-05-18 05:32:00
12:53 AM,51.8,42.8,71,29.99,10.0,East,4.6,-,N/A,Rain-Thunderstorm,Light Thunderstorms and Rain,100,2013-05-18 05:53:00
1:12 AM,48.2,42.8,82,29.98,10.0,East,3.5,-,0.02,Rain,Rain,100,2013-05-18 06:12:00
1:32 AM,48.2,42.8,82,29.96,10.0,ENE,5.8,-,0.02,Rain,Light Rain,60,2013-05-18 06:32:00
1:52 AM,48.2,42.8,82,29.96,10.0,East,4.6,-,0.03,Thunderstorm,Unknown,80,2013-05-18 06:52:00
2:12 AM,48.2,42.8,82,29.95,10.0,East,3.5,-,N/A,,Overcast,90,2013-05-18 07:12:00
2:33 AM,48.2,42.8,82,29.95,10.0,East,3.5,-,N/A,Rain,Light Rain,100,2013-05-18 07:33:00
2:52 AM,48.2,42.8,82,29.94,10.0,East,4.6,-,N/A,,Overcast,90,2013-05-18 07:52:00
3:13 AM,48.2,42.8,82,29.94,10.0,Calm,Calm,-,N/A,,Overcast,0,2013-05-18 08:13:00
3:33 AM,48.2,42.8,82,29.94,10.0,ENE,4.6,-,N/A,,Overcast,60,2013-05-18 08:33:00
3:52 AM,50.0,44.6,82,29.95,10.0,Calm,Calm,-,N/A,,Overcast,0,2013-05-18 08:52:00
4:13 AM,50.0,44.6,82,29.93,10.0,ENE,4.6,-,N/A,,Overcast,70,2013-05-18 09:13:00
4:33 AM,51.8,44.6,76,29.94,10.0,ESE,5.8,-,N/A,,Overcast,110,2013-05-18 09:33:00
4:52 AM,51.8,44.6,76,29.94,7.0,Calm,Calm,-,N/A,,Drizzle,0,2013-05-18 09:52:00
5:13 AM,51.8,46.4,82,29.95,7.0,SSE,3.5,-,0.01,Rain,Light Rain,160,2013-05-18 10:13:00
5:32 AM,51.8,44.6,76,29.95,5.0,East,4.6,-,0.03,Rain,Rain,80,2013-05-18 10:32:00
5:52 AM,51.8,44.6,76,29.95,5.0,SSE,8.1,-,0.16,Rain,Heavy Rain,150,2013-05-18 10:52:00
6:12 AM,51.8,46.4,82,29.95,10.0,SE,4.6,-,0.11,Rain,Heavy Rain,140,2013-05-18 11:12:00
6:32 AM,51.8,46.4,82,29.95,10.0,SE,6.9,-,0.17,Rain,Rain,140,2013-05-18 11:32:00
6:53 AM,51.8,46.4,82,29.91,7.0,ESE,8.1,-,0.19,Rain,Light Rain,120,2013-05-18 11:53:00
7:12 AM,51.8,46.4,82,29.91,5.0,SSE,6.9,-,N/A,,Haze,150,2013-05-18 12:12:00
7:32 AM,53.6,46.4,77,29.92,4.0,ESE,3.5,-,N/A,,Haze,120,2013-05-18 12:32:00
7:53 AM,53.6,46.4,77,29.92,4.0,Calm,Calm,-,N/A,,Haze,0,2013-05-18 12:53:00
8:12 AM,53.6,46.4,77,29.92,4.0,Calm,Calm,-,N/A,,Haze,0,2013-05-18 13:12:00
8:32 AM,53.6,46.4,77,29.92,4.0,Calm,Calm,-,N/A,,Haze,0,2013-05-18 13:32:00
8:53 AM,55.4,48.2,77,29.92,4.0,SE,6.9,-,N/A,,Haze,130,2013-05-18 13:53:00
9:12 AM,55.4,48.2,77,29.91,3.0,ESE,8.1,-,N/A,,Haze,120,2013-05-18 14:12:00
9:32 AM,55.4,48.2,77,29.89,3.0,ESE,5.8,10.4,N/A,,Haze,120,2013-05-18 14:32:00
9:53 AM,55.4,50.0,82,29.90,4.0,ESE,4.6,-,N/A,Rain,Light Rain,110,2013-05-18 14:53:00
10:12 AM,55.4,48.2,77,29.90,4.0,East,5.8,-,N/A,Rain,Light Rain,80,2013-05-18 15:12:00
10:32 AM,55.4,50.0,82,29.91,4.0,Calm,Calm,-,N/A,Rain,Light Rain,0,2013-05-18 15:32:00
10:53 AM,55.4,50.0,82,29.90,3.0,East,5.8,-,N/A,,Haze,80,2013-05-18 15:53:00
11:12 AM,55.4,50.0,82,29.90,4.0,East,3.5,-,N/A,,Haze,100,2013-05-18 16:12:00
11:32 AM,55.4,50.0,82,29.90,4.0,East,4.6,-,N/A,,Haze,90,2013-05-18 16:32:00
11:53 AM,57.2,51.8,82,29.89,4.0,ESE,4.6,-,N/A,,Haze,110,2013-05-18 16:53:00
12:12 PM,57.2,51.8,82,29.89,5.0,ESE,6.9,-,N/A,,Haze,120,2013-05-18 17:12:00
12:32 PM,57.2,51.8,82,29.89,5.0,ESE,6.9,-,N/A,,Haze,120,2013-05-18 17:32:00
12:53 PM,57.2,51.8,82,29.88,5.0,ESE,5.8,-,N/A,,Haze,110,2013-05-18 17:53:00
1:12 PM,57.2,51.8,82,29.88,5.0,ESE,3.5,-,N/A,,Haze,120,2013-05-18 18:12:00
1:32 PM,59.0,53.6,82,29.87,5.0,Calm,Calm,-,N/A,,Haze,0,2013-05-18 18:32:00
1:53 PM,60.8,53.6,77,29.87,5.0,SE,4.6,-,N/A,,Haze,130,2013-05-18 18:53:00
2:12 PM,60.8,55.4,82,29.87,5.0,SE,6.9,-,N/A,,Haze,130,2013-05-18 19:12:00
2:32 PM,60.8,55.4,82,29.86,5.0,SSE,8.1,-,N/A,,Haze,150,2013-05-18 19:32:00
2:53 PM,62.6,55.4,77,29.86,5.0,SE,6.9,-,N/A,,Haze,140,2013-05-18 19:53:00
3:12 PM,62.6,55.4,77,29.86,7.0,Calm,Calm,-,N/A,,Overcast,0,2013-05-18 20:12:00
3:32 PM,64.4,57.2,77,29.85,7.0,ESE,5.8,-,N/A,,Overcast,110,2013-05-18 20:32:00
3:53 PM,64.4,57.2,77,29.85,10.0,East,3.5,-,N/A,,Overcast,90,2013-05-18 20:53:00
4:12 PM,66.2,57.2,73,29.85,10.0,East,6.9,-,N/A,,Scattered Clouds,80,2013-05-18 21:12:00
4:33 PM,66.2,57.2,73,29.85,10.0,ENE,4.6,-,N/A,,Clear,70,2013-05-18 21:33:00
4:52 PM,66.2,57.2,73,29.85,10.0,NE,6.9,-,N/A,,Clear,50,2013-05-18 21:52:00
5:12 PM,66.2,57.2,73,29.85,10.0,ENE,5.8,-,N/A,,Scattered Clouds,60,2013-05-18 22:12:00
5:33 PM,66.2,57.2,73,29.86,10.0,ENE,4.6,-,N/A,,Clear,70,2013-05-18 22:33:00
5:52 PM,66.2,57.2,73,29.86,10.0,East,3.5,-,N/A,,Scattered Clouds,80,2013-05-18 22:52:00
6:12 PM,66.2,57.2,73,29.85,10.0,ENE,5.8,-,N/A,,Scattered Clouds,70,2013-05-18 23:12:00
6:33 PM,66.2,57.2,73,29.85,10.0,ENE,5.8,-,N/A,,Scattered Clouds,70,2013-05-18 23:33:00
6:52 PM,64.4,57.2,77,29.86,10.0,ENE,5.8,-,N/A,,Scattered Clouds,60,2013-05-18 23:52:00
7:12 PM,64.4,55.4,73,29.85,10.0,ENE,5.8,-,N/A,,Mostly Cloudy,70,2013-05-19 00:12:00
7:33 PM,64.4,55.4,73,29.85,10.0,ENE,6.9,-,N/A,,Mostly Cloudy,70,2013-05-19 00:33:00
7:52 PM,62.6,55.4,77,29.84,10.0,ENE,6.9,-,N/A,,Scattered Clouds,70,2013-05-19 00:52:00
8:12 PM,62.6,53.6,72,29.85,10.0,ENE,5.8,-,N/A,,Clear,60,2013-05-19 01:12:00
8:32 PM,60.8,53.6,77,29.85,10.0,ENE,5.8,-,N/A,,Clear,60,2013-05-19 01:32:00
8:52 PM,59.0,51.8,77,29.85,10.0,ENE,4.6,-,N/A,,Scattered Clouds,70,2013-05-19 01:52:00
9:13 PM,59.0,51.8,77,29.85,10.0,East,4.6,-,N/A,,Scattered Clouds,90,2013-05-19 02:13:00
9:33 PM,57.2,51.8,82,29.84,10.0,ENE,6.9,-,N/A,,Clear,60,2013-05-19 02:33:00
9:52 PM,57.2,50.0,77,29.84,10.0,ENE,4.6,-,N/A,,Clear,60,2013-05-19 02:52:00
10:13 PM,55.4,48.2,77,29.82,10.0,ENE,8.1,-,N/A,,Clear,70,2013-05-19 03:13:00
10:33 PM,55.4,48.2,77,29.82,10.0,ENE,5.8,-,N/A,,Clear,70,2013-05-19 03:33:00
10:52 PM,55.4,48.2,77,29.83,10.0,NNE,5.8,-,N/A,,Clear,30,2013-05-19 03:52:00
11:13 PM,53.6,46.4,77,29.83,10.0,NE,5.8,-,N/A,,Clear,40,2013-05-19 04:13:00
11:33 PM,53.6,46.4,77,29.83,10.0,ENE,3.5,-,N/A,,Mostly Cloudy,60,2013-05-19 04:33:00
11:52 PM,53.6,46.4,77,29.84,10.0,NE,3.5,-,N/A,,Overcast,50,2013-05-19 04:52:00